Location: Klein M�hlingen
(51.9472°N, 11.7453°E)
Time: 08:53:49
(UTC+00:00)

Cosmos 1703 - Pass Details

Date: 09 April 2020
Orbit: 524 x 540 km, 82.5° (Epoch: 22 May)

Event Time Altitude Azimuth Distance (km) Brightness Sun altitude
Rises 18:59:33 0° 345° (NNW) 2,706 7.5 -9.3°
Reaches altitude 10° 19:01:45 10° 340° (NNW) 1,811 6.7 -9.6°
Maximum altitude 19:05:36 49° 265° (W) 709 4.3 -10.1°
Drops below altitude 10° 19:09:25 10° 191° (S) 1,800 5.8 -10.6°
Sets 19:11:36 0° 185° (S) 2,687 6.6 -10.9°
